Back to catalog

OOV-CUBE

AliveAmateur RadioVLEO
NORAD 60240·PAYLOAD·🇩🇪 Germany

Launched Jul 9, 2024 from Guiana Space Centre

Loading…

Next Passes (next 24 hours)

TLE

FreshSource: Space-Track

Epoch: Sep 13, 2026, 13:01 UTC

1 60240U 24128F   26256.54282977  .00001228  00000-0  10524-3 0  9992
2 60240  61.9931 277.4049 0032208 154.2894 205.9807 15.03092161119396

Track OOV-CUBE in real time with AllMySat

Download on the App Store